Location: Nirvana
(45.0297°N, 77.2628°W)
Time: 00:08:40
(UTC-04:00)

ISS - Visible Passes

Search period start: 19 October 2019 00:00
Search period end: 29 October 2019 00:00
Orbit: 411 x 421 km, 51.6° (Epoch: 19 October)

Date Brightness Start Highest point End Pass type
(mag) Time Alt. Az. Time Alt. Az. Time Alt. Az.
22 Oct -0.7 07:02:05 10° S 07:04:15 16° SE 07:06:25 10° E visible
24 Oct -2.3 07:00:23 10° SSW 07:03:32 39° SE 07:06:42 10° ENE visible
25 Oct -1.5 06:12:17 10° SSW 06:15:04 24° SE 06:17:51 10° E visible
26 Oct -1.1 05:25:39 13° SSE 05:26:39 15° SE 05:28:38 10° E visible
26 Oct -3.8 06:59:36 10° WSW 07:02:58 86° NNW 07:06:20 10° ENE visible
27 Oct -3.3 06:12:34 24° SW 06:14:22 59° SE 06:17:42 10° ENE visible
28 Oct -2.1 05:26:23 33° ESE 05:26:23 33° ESE 05:28:57 10° ENE visible
28 Oct -3.2 06:59:18 10° W 07:02:31 44° NNW 07:05:46 10° NE visible
